Regional Weather Roundup
Issued by NWS

Home | Current Version | Previous Version | Text Only | Print | Product List | Glossary On
Versions: 1 2 3 4 5 6 7 8 9 10 11 12 13 14 15 16 17 18 19 20 21 22 23 24 25 26 27 28 29 30 31 32 33 34 35 36 37 38 39 40 41 42 43 44 45 46 47 48 49 50
000
ASUS43 KDTX 280810
RWRMI
MICHIGAN HOURLY REGIONAL WEATHER ROUNDUP
NATIONAL WEATHER SERVICE DETROIT/PONTIAC MI
400 AM EDT THU JUL 28 2016

NOTE: "FAIR" INDICATES FEW OR NO CLOUDS BELOW 12,000 FEET WITH NO
SIGNIFICANT WEATHER AND/OR OBSTRUCTION TO VISIBILITY.

MIZ047>049-052>055-059>063-066>070-074>076-081>083-280900-
SOUTHEAST LOWER MICHIGAN

CITY           SKY/WX    TMP DP  RH WIND       PRES   REMARKS
ADRIAN         PTCLDY    65  64  97 CALM      29.92F
ALMA           FOG       62  62 100 W3        29.94F VSB 1/2
ANN ARBOR      CLEAR     62  62 100 CALM      29.91F
BAD AXE        MOCLDY    60  60 100 CALM      29.94F FOG
CARO           FOG       62  61  98 CALM      29.93S VSB 1
DETROIT CITY   CLEAR     71  66  84 NE3       29.91F
DETROIT        PTCLDY    71  64  78 N3        29.91F
FLINT          CLEAR     66  62  87 CALM      29.94S
GROSSE ILE     CLEAR     72  65  80 CALM      29.89F
HILLSDALE      PTCLDY    63  61  93 CALM      29.92F
HOWELL         CLEAR     65  64  96 CALM      29.93F

CITY           SKY/WX    TMP DP  RH WIND       PRES   REMARKS
JACKSON        CLEAR     64  64 100 CALM      29.93F
LAMBERTVILLE   PTCLDY    67  64  89 CALM      29.91F
LANSING        CLOUDY    66  61  84 CALM      29.93F
LAPEER         FAIR      61  60  96 CALM      29.94S
MASON          CLOUDY    64  62  93 CALM      29.94S
MONROE         CLEAR     67  65  94 W8        29.89F
MT. CLEMENS    CLEAR     67  64  89 N5        29.89F
PONTIAC        CLEAR     68  64  87 N3        29.92F
PORT HURON     CLEAR     63  63 100 CALM      29.92S
TRI CITIES     CLEAR     65  65 100 CALM      29.94F
MIDLAND        FOG       64  64 100 CALM      29.93F VSB<1/4
TROY           CLEAR     72  64  76 NE3       29.93F
SAGINAW HB     PTCLDY    63  61  94 CALM      29.93S FOG
$$
MIZ043>046-050>051-056>058-064>065-071>073-077>080-280900-
SOUTHWEST LOWER MICHIGAN

CITY           SKY/WX    TMP DP  RH WIND       PRES   REMARKS
BATTLE CREEK   CLEAR     66  64  93 CALM      29.93F
BENTON HARBOR  CLEAR     67  64  90 CALM      29.91F
BIG RAPIDS     FOG       66  66 100 CALM      29.94F VSB 3/4
COLDWATER      CLEAR     65  65  99 CALM      29.93S
FREMONT        FAIR      67  67 100 CALM      29.93F
HOLLAND        CLEAR     66  64  93 CALM      29.92F
GRAND RAPIDS   CLEAR     67  64  90 CALM      29.93F
IONIA          FAIR      64  63  95 CALM      29.92F FOG
KALAMAZOO      CLEAR     66  62  87 CALM      29.92F
LUDINGTON      CLOUDY    69  65  88 NE3       29.93F
MARSHALL       CLEAR     65  64  98 CALM      29.92F
MOUNT PLEASANT   N/A     66  66  99 CALM      29.93S FOG
MUSKEGON       MOCLDY    71  68  90 CALM      29.92F
SOUTH HAVEN    CLEAR     64  64  98 NE3       29.92S
$$
MIZ016>042-280900-
NORTHERN LOWER MICHIGAN

CITY           SKY/WX    TMP DP  RH WIND       PRES   REMARKS
ALPENA         MOCLDY    65  61  87 CALM      29.96F
BEAVER ISLAND  RAIN      63  57  81 N6        30.02R
BELLAIRE       CLOUDY    68  59  72 N5        29.99R
CADILLAC       CLOUDY    67  65  94 N3        29.97F
CHARLEVOIX     LGT RAIN  66  59  77 N9        30.04R
FRANKFORT      CLOUDY    70  61  74 N8G21     29.97S
GAYLORD        LGT RAIN  65  55  70 NE5       30.00S
GRAYLING       CLOUDY    68  58  68 N3        29.99R
HARBOR SPRINGS DRIZZLE   63  59  86 CALM      30.00R
HOUGHTON LAKE  CLOUDY    67  65  93 NE7       29.97S
MANISTEE       MOCLDY    70  66  87 N3        29.95S
OSCODA         CLOUDY    66  65  99 NW3       29.94F
PELLSTON       CLOUDY    64  56  75 W3        30.00S
ROGERS CITY    CLOUDY    66  53  63 NW6       29.99R
TRAVERSE CITY  CLOUDY    72  60  66 N12       29.96R
$$
MIZ007>008-015-280900-
EASTERN UPPER MICHIGAN

CITY           SKY/WX    TMP DP  RH WIND       PRES   REMARKS
KINROSS        LGT RAIN  60  57  89 W3        29.99S
MACKINAC ISLAN LGT RAIN  60  58  93 NW3       30.00R
NEWBERRY       CLOUDY    59  57  94 SW3       30.00F
S. S. MARIE    CLOUDY    63  59  87 NW5       29.98R
MUNISING         N/A     61  60  97 SW3       30.00F
$$
MIZ004>006-011>014-085-280900-
CENTRAL UPPER MICHIGAN

CITY           SKY/WX    TMP DP  RH WIND       PRES   REMARKS
MANISTIQUE     RAIN      59  59 100 N3        30.01F
ESCANABA       CLOUDY    61  57  88 N3        30.00S
MENOMINEE      LGT RAIN N/A N/A N/A NE12G17   29.98F
SAWYER-GWINN   CLOUDY    59  56  92 CALM      30.03F
$$
MIZ001>003-009>011-084-280900-
WESTERN UPPER MICHIGAN

CITY           SKY/WX    TMP DP  RH WIND       PRES   REMARKS
IRON MOUNTAIN  RAIN      60  56  86 N5        30.02S FOG
HOUGHTON       PTCLDY    58  56  93 N7        30.03S
COPPER HARBOR    N/A     60  55  83 N6        30.03
IRONWOOD       CLOUDY    61  61 100 NE5       30.02F
$$

ABBREVIATIONS USED IN REMARKS
   TC - TEMPERATURE IN CELSIUS
  WCI - WIND CHILL INDEX
   HX - HEAT INDEX
  VSB - VISIBILITY





USA.gov is the U.S. government's official web portal to all federal, state and local government web resources and services.